Location: Hains Lake
(37.8540°N, 99.8578°W)
Time: 23:16:45
(UTC+00:00)

Vanguard 1 - Pass Details

Date: 27 November 2022
Orbit: 650 x 3831 km, 34.2° (Epoch: 05 February)

Event Time Altitude Azimuth Distance (km) Brightness Sun altitude
Exits shadow 10:50:57 44° 210° (SSW) 1,923 11.2 -31.4°
Maximum altitude 10:51:43 45° 197° (SSW) 1,970 11.4 -31.3°
Drops below altitude 10° 11:03:32 10° 131° (SE) 5,019 14.3 -28.9°
Sets 11:08:48 0° 126° (SE) 6,557 15.2 -27.9°
